Location: Maccacari
(45.1333°N, 11.1333°E)
Time: 17:11:09
(UTC+00:00)

S-56A Canister/Altair - Visible Passes

Search period start: 20 June 2021 00:00
Search period end: 30 June 2021 00:00
Orbit: 632 x 2500 km, 38.9° (Epoch: 20 June)

Date Brightness Start Highest point End Pass type
(mag) Time Alt. Az. Time Alt. Az. Time Alt. Az.
20 Jun 9.3 02:31:16 10° S 02:33:04 12° SSE 02:34:52 10° SE visible
21 Jun 9.4 01:59:53 10° SSE 02:00:36 10° SSE 02:01:18 10° SE visible
24 Jun 8.5 02:22:42 12° SSW 02:26:01 24° SSE 02:29:35 10° ESE visible
25 Jun 8.6 01:51:33 17° SSW 01:53:33 22° SSE 01:57:01 10° ESE visible
26 Jun 8.7 01:20:22 20° S 01:21:05 21° SSE 01:24:28 10° ESE visible
27 Jun 8.9 00:49:09 19° SSE 00:49:09 19° SSE 00:51:57 10° ESE visible
27 Jun 7.9 02:47:15 10° WSW 02:51:40 36° S 02:55:45 10° ESE visible
28 Jun 9.3 00:17:55 15° SE 00:17:55 15° SE 00:19:27 10° ESE visible
28 Jun 7.9 02:15:19 13° SW 02:19:12 36° S 02:23:17 10° ESE visible
28 Jun 9.7 23:46:38 11° ESE 23:46:38 11° ESE 23:46:56 10° ESE visible
29 Jun 8.0 01:44:02 21° SW 01:46:44 35° S 01:50:51 10° ESE visible
